SCP
-0 -0 -0 0 0 0 0 -0 -0 -0 -0 -0 -0 -0 -0 -0 -0 0 -0 -0 -0 -1 -0 -0 0 0 0 0 0 1 1 -0 -0 0 0 0 0 0 0 0 0 0 -0 -0 -0
0 0 0 0 0 0 0 0 -0 -0 -0 -0 -0 -0 -0 -0 -0 -0 0 -0 -1 -1 -0 -0 -0 0 -0 0 0 1 0 -0 0 0 0 0 0 0 0 0 0 0 -0 -0 -0
0 0 0 0 0 0 0 0 0 0 -0 -0 -0 -0 -0 -0 -0 0 -0 -0 -0 -0 -0 -0 0 -0 -0 0 0 -0 0 0 0 -0 0 0 0 0 0 0 0 -0 -0 -0 -0
-0 0 0 0 0 0 0 0 0 0 -0 -0 -0 -0 -0 0 0 0 -0 -0 -0 -0 -0 -0 0 -0 0 0 -0 0 0 0 0 0 0 0 0 0 0 0 0 -0 -0 -0 -0
-0 -0 -0 0 0 0 0 0 0 0 0 0 -0 -0 0 -0 0 0 -0 -0 -0 -0 -0 -0 -0 -0 -0 -0 0 -0 0 0 0 0 0 0 0 0 0 0 0 -0 -0 -0 -0
-0 -0 0 0 0 0 0 0 0 0 0 0 -0 -0 0 0 0 0 -0 0 0 -0 0 -0 -0 -0 -0 -0 -0 -0 0 0 0 0 0 0 0 0 0 0 0 -0 -0 -0 -0
0 -0 -0 -0 -0 0 0 0 0 0 0 0 0 0 0 0 0 0 0 0 0 -0 0 0 0 -0 -0 -0 -0 -0 -0 -0 0 0 0 0 0 0 -0 0 0 -0 -0 -0 -0
-0 -0 -0 -0 -0 -0 -0 -0 -0 -0 -0 0 0 0 0 0 0 0 0 0 0 0 0 0 0 -0 -0 -0 -0 -0 -0 -0 0 0 0 0 0 0 0 -0 -0 -0 0 -0 -0
-0 -0 -0 -0 -0 -0 -0 -0 -0 -0 -0 0 0 0 0 0 0 0 0 0 0 -0 -0 0 0 -0 -0 -0 0 -0 -0 -0 0 0 0 0 0 0 0 -0 -0 -0 -0 -0 -0
-0 -0 -0 -0 -0 0 0 0 0 0 -0 -0 -0 0 0 0 0 0 0 0 0 0 0 0 -0 -0 -0 -0 0 -0 -0 -0 -0 0 -0 -0 -0 -0 0 -0 -0 -0 -0 -0 -0
-0 -0 -0 -0 -0 0 0 0 0 -0 -0 -0 -0 0 0 0 0 0 0 0 -0 -0 -0 -0 0 -0 -0 0 0 0 -0 -0 0 0 -0 -0 -0 0 -0 -0 -0 -0 -0 -0 -0
-0 -0 -0 -0 -0 0 0 0 0 0 0 0 0 0 0 0 -0 -0 -0 -0 -0 -0 -0 -0 0 -0 -0 0 0 0 -0 -0 -0 0 -0 -0 -0 0 -0 -0 -0 -0 -0 -0 -0
-0 -0 -0 -0 -0 0 0 0 0 0 0 -0 -0 -0 -0 -0 -0 -0 -0 -0 0 -0 -0 -0 -0 0 0 0 -0 -0 -0 -0 0 -0 -0 0 -0 0 0 0 0 0 -0 -0 -0
-0 -0 -0 -0 0 0 0 0 0 0 0 -0 -0 -0 -0 -0 -0 -0 -0 -0 -0 -0 0 -0 0 0 0 0 0 -0 -0 0 0 -0 -0 0 0 0 -0 0 -0 0 -0 -0 -0
-0 -0 -0 -0 -0 0 0 0 0 0 0 0 -0 0 -0 -0 -0 -0 0 -0 -0 -0 -0 0 0 -0 -0 0 0 -0 0 0 0 -0 -0 0 0 0 -0 0 0 0 -0 0 -0
-0 -0 -0 0 0 -0 0 0 0 0 -0 -0 -0 -0 -0 -0 -0 -0 -0 -0 -0 -0 -0 -0 0 0 -0 0 -0 0 -0 0 0 0 0 -0 0 -0 0 0 0 0 0 -0 -0
-0 -0 -0 -0 0 0 -0 0 0 0 -0 -0 -0 -0 -0 -0 -0 -0 -0 -0 -0 -0 -0 0 -0 -0 0 -0 -0 0 -0 0 -0 -0 -0 -0 0 0 0 0 0 0 0 0 -0
-0 0 -0 -0 -0 -0 -0 -0 -0 0 -0 -0 -0 -0 -0 -0 -0 -0 -0 -0 -0 -0 -0 -0 0 -0 0 -0 -0 -0 -0 -0 -0 0 0 0 0 0 0 0 0 0 0 -0 0
-0 -0 -0 -0 0 -0 -0 -0 0 0 0 0 -0 -0 -0 -0 -0 0 0 -0 0 -0 -0 -0 0 0 -0 0 -0 -0 -0 -0 -0 -0 0 0 0 0 0 0 0 0 0 0 0
-0 -0 -0 -0 -0 -0 -0 -0 0 0 0 0 -0 -0 0 -0 -0 -0 0 0 0 0 -0 0 -0 0 0 0 -0 -0 -0 -0 -0 -0 -0 0 0 0 0 0 0 0 0 0 0
-0 -0 -0 -0 -0 -0 -0 0 0 0 0 0 -0 0 -0 0 0 0 0 0 0 0 0 -0 -0 0 0 0 -0 0 -0 -0 -0 0 -0 -0 0 0 0 0 0 0 0 0 0
-0 0 0 -0 -0 0 0 0 0 0 0 -0 -0 0 -0 0 0 -0 -0 0 0 0 -0 0 0 -0 -0 0 0 -0 -0 -0 0 -0 -0 0 0 0 0 0 0 0 0 0 0
0 0 0 -0 -0 0 0 0 -0 -0 0 0 0 0 0 0 0 0 0 0 0 0 0 -0 0 -0 0 -0 0 -0 0 -0 -0 -0 0 0 0 0 0 0 0 0 0 0 0
0 0 0 0 0 -0 0 0 0 0 -0 -0 0 0 0 0 0 0 0 0 0 0 0 0 -0 -0 0 0 0 0 0 0 -0 0 -0 -0 0 0 0 0 0 0 0 0 0
0 0 0 0 0 0 0 0 0 0 0 0 0 0 0 0 0 0 0 0 0 0 0 0 0 0 0 0 -0 -0 -0 -0 -0 -0 -0 -0 0 0 0 0 0 0 0 0 1
0 0 0 0 0 0 0 0 0 0 0 0 0 0 0 0 0 0 0 0 0 0 0 0 0 0 -0 -0 -0 0 0 0 0 0 -0 0 0 0 0 0 0 0 0 0 0
0 0 0 0 0 0 0 0 0 0 0 0 0 0 0 0 0 0 0 0 -0 -0 -0 0 0 -0 0 -0 -0 -0 0 0 -0 -0 -0 -0 0 0 0 0 0 0 1 1 1
Wind_Speed_500mb
22 21 21 20 20 21 23 24 25 26 25 23 23 22 21 23 27 23 10 7 7 5 12 18 14 11 12 19 30 34 7 25 29 27 16 13 18 13 13 26 11 13 29 58 61
24 23 23 22 22 22 22 23 25 25 25 25 23 21 19 22 25 23 25 20 7 8 28 17 12 15 31 20 16 14 25 24 25 16 21 15 19 22 18 24 19 38 52 67 60
23 24 23 23 22 22 23 22 23 24 23 23 22 19 16 18 24 6 10 10 8 10 14 8 8 28 40 9 10 26 22 11 16 19 17 17 24 19 23 19 34 53 65 69 60
24 24 24 22 21 20 21 21 19 19 21 22 20 17 13 9 10 7 8 10 16 20 12 10 14 38 24 21 14 6 11 13 9 7 10 14 23 18 14 24 37 52 71 67 62
26 25 23 20 18 17 17 18 16 15 16 18 18 14 10 19 12 11 9 16 22 12 17 16 26 27 23 19 4 20 16 4 9 7 8 14 16 14 10 28 38 51 62 66 62
28 26 22 17 14 12 12 12 12 11 11 13 15 14 11 30 4 13 2 17 14 14 15 14 19 21 26 16 18 17 6 6 8 8 12 22 22 17 21 30 40 52 57 60 61
27 24 19 14 11 7 6 7 6 7 8 8 11 15 17 10 6 7 13 20 12 15 14 11 14 20 27 24 12 13 13 22 12 8 11 22 14 23 32 31 39 49 52 53 54
25 21 17 12 11 8 5 3 2 3 2 3 10 12 11 8 10 14 17 17 18 17 16 15 21 28 30 26 38 23 15 15 16 15 5 21 29 13 31 41 44 46 51 53 52
22 18 12 11 13 9 4 3 3 3 4 9 9 11 13 5 16 19 21 15 18 16 19 21 22 31 30 32 12 48 8 12 24 17 11 16 14 21 27 44 46 47 48 52 52
20 12 7 11 14 10 10 10 9 10 10 12 10 15 13 16 20 23 23 12 16 17 23 26 30 29 28 28 10 23 17 16 16 10 13 15 17 25 29 42 40 46 48 51 53
20 8 1 8 12 11 4 1 4 6 17 17 28 4 13 12 16 20 24 17 17 19 27 37 24 29 38 22 22 21 25 23 17 9 11 13 12 17 34 32 40 49 51 54 54
18 4 5 4 5 8 10 7 13 6 8 8 12 9 9 10 21 24 26 23 25 29 36 27 26 33 35 18 24 29 32 29 27 12 20 12 14 17 33 27 32 37 46 48 49
12 4 8 2 4 5 5 7 7 7 7 14 16 12 13 17 18 31 32 34 21 28 30 25 35 17 18 27 31 31 31 36 20 21 36 15 24 15 17 24 24 31 37 46 49
6 5 8 5 3 2 2 5 13 9 10 21 18 12 14 13 11 12 28 24 18 23 19 18 20 13 23 26 23 30 27 27 16 25 13 3 5 18 24 22 17 26 35 43 50
3 6 10 11 5 7 5 11 12 6 3 4 14 11 10 20 18 24 18 19 27 17 12 4 6 13 19 12 18 27 26 23 28 26 32 21 10 27 29 13 18 25 32 41 51
2 6 9 7 8 9 12 16 9 16 10 13 13 20 25 21 10 14 23 23 16 15 20 27 2 13 21 16 19 21 19 24 28 26 25 29 20 14 26 6 8 5 11 35 50
6 7 8 9 1 14 14 12 16 2 9 12 19 18 18 17 15 25 24 28 24 25 30 18 19 20 8 33 17 21 29 20 21 22 23 28 13 13 26 15 18 13 11 20 45
4 4 3 5 11 14 11 19 11 5 13 9 6 9 12 10 15 13 12 19 14 14 20 12 22 19 11 11 27 28 26 21 21 19 21 17 10 13 9 26 20 16 14 20 43
3 0 4 8 12 10 20 21 9 8 6 9 17 20 16 14 14 13 11 19 16 21 22 3 8 10 4 12 13 22 22 29 23 27 25 16 21 7 28 23 22 19 16 7 34
5 11 5 8 10 13 22 8 5 9 14 15 24 8 9 16 17 20 8 12 2 6 20 9 22 15 17 12 33 18 24 23 16 21 15 18 13 3 23 16 24 22 19 14 17
9 16 6 7 9 24 19 11 1 4 12 12 8 10 9 4 20 5 7 12 4 3 16 24 25 14 19 13 23 15 23 20 23 18 21 22 16 23 18 21 20 24 21 12 1
14 15 1 6 23 7 9 4 5 4 5 5 14 17 13 7 15 8 12 11 9 15 21 19 20 25 29 8 4 18 24 21 18 24 20 17 9 19 17 19 19 23 22 14 16
18 20 3 10 17 12 9 11 11 11 5 4 3 6 7 16 8 14 4 15 10 13 20 26 16 23 20 26 23 10 3 15 25 23 23 21 4 10 16 18 18 19 20 20 13
13 8 12 14 17 22 6 16 14 9 12 13 16 8 12 14 8 11 14 12 8 15 14 16 29 32 23 33 23 16 28 23 25 18 26 22 4 21 13 9 9 14 15 18 15
5 5 10 8 5 14 11 11 18 12 18 11 11 18 18 15 12 15 7 15 17 17 13 16 28 29 30 23 27 30 31 31 31 30 29 35 34 20 19 14 12 7 7 14 16
17 13 17 31 18 21 11 24 23 14 12 22 15 23 11 21 17 17 14 16 18 14 16 21 26 25 33 30 35 39 38 38 35 36 36 35 35 30 32 12 6 7 3 8 18
19 12 14 12 23 17 17 10 10 6 18 20 15 14 20 11 6 21 28 32 30 27 26 26 25 24 32 28 32 23 36 32 26 27 29 32 30 18 14 14 17 17 10 7 10
Wind_Direction_500mb
318 310 303 295 288 283 278 269 260 258 261 265 276 289 300 303 307 309 327 231 280 201 149 142 179 202 230 258 219 235 225 52 48 59 115 155 116 87 100 124 137 203 143 154 157
322 314 305 295 287 279 274 270 263 256 254 260 265 280 295 302 297 273 253 281 269 176 145 160 181 207 227 238 270 177 51 46 6 75 123 165 128 130 140 131 127 103 122 147 157
327 319 309 299 289 280 275 270 267 261 257 256 262 271 287 303 292 171 237 262 187 133 170 212 273 245 270 130 30 6 19 22 66 41 126 158 124 153 142 140 136 136 144 155 161
333 325 317 307 294 282 275 272 268 263 255 252 255 262 274 289 268 325 320 201 158 148 205 244 266 267 278 51 64 267 46 356 29 96 140 158 139 167 190 131 147 150 157 161 171
337 331 324 313 300 287 274 269 268 265 257 246 245 248 250 246 265 288 318 174 148 146 218 257 289 334 1 356 2 11 36 315 103 161 170 169 162 158 146 139 153 155 162 168 171
341 339 333 323 313 298 281 272 272 266 257 240 231 229 232 251 359 271 196 157 168 192 236 263 314 322 286 318 7 332 307 37 72 166 170 192 174 177 172 160 160 164 170 173 177
345 347 347 338 333 321 293 276 272 263 261 230 207 215 250 262 155 209 176 169 195 210 269 277 306 298 328 312 347 289 271 148 120 134 203 231 189 183 165 173 172 176 181 183 185
350 355 1 6 15 8 351 329 278 240 238 190 180 191 265 217 203 189 192 208 219 224 244 284 297 294 268 295 255 244 229 122 117 153 154 252 159 164 181 179 179 187 186 191 194
351 357 18 32 20 3 6 63 101 114 120 135 137 193 212 231 192 190 183 198 215 231 245 266 289 274 290 258 45 322 5 42 136 167 148 234 121 163 179 181 187 189 193 196 198
350 357 37 33 24 44 80 86 105 113 113 131 195 219 218 206 177 181 186 193 209 238 238 240 248 257 248 248 97 285 347 341 22 106 198 223 260 160 183 181 198 191 198 198 202
341 345 62 36 42 59 85 345 185 182 220 305 167 279 142 148 167 185 194 206 227 233 246 216 260 255 254 359 349 312 296 302 320 49 302 252 264 183 173 200 195 198 199 199 204
332 295 203 41 50 56 46 292 22 345 174 184 187 250 190 202 178 186 188 208 206 239 234 255 249 260 284 344 293 287 285 275 259 18 295 295 273 263 151 192 203 202 193 201 199
328 229 196 214 322 297 282 357 342 317 220 152 169 189 169 198 213 171 194 211 234 242 256 257 288 6 314 282 279 265 264 288 355 314 270 287 237 121 122 163 185 201 202 199 198
333 197 181 173 72 304 285 282 329 291 200 142 167 135 166 228 154 142 200 232 227 271 249 266 288 320 279 269 271 272 288 288 303 281 293 171 80 50 267 140 170 184 207 200 198
352 183 183 196 215 284 277 316 312 275 249 123 107 138 185 253 122 183 195 226 270 239 223 266 289 245 248 296 344 297 327 292 281 275 270 220 211 147 219 106 144 178 193 216 196
55 157 180 231 263 260 298 301 312 238 87 130 139 181 187 210 155 142 193 230 294 271 238 273 241 267 290 316 263 291 276 253 242 254 265 268 248 207 130 96 38 90 210 205 207
111 144 170 177 4 284 294 283 252 294 195 149 154 191 219 159 136 166 188 200 226 226 220 190 220 215 233 271 209 231 248 250 217 216 235 245 171 285 81 55 25 354 296 228 205
120 141 166 259 270 293 287 255 281 340 65 125 218 196 205 170 137 169 194 221 188 283 276 300 176 199 146 330 339 309 327 309 321 297 322 11 226 100 70 59 11 0 312 282 192
167 358 277 285 293 290 273 262 54 11 342 298 192 214 145 192 288 228 262 22 23 333 323 315 187 120 258 329 313 331 274 349 311 296 282 284 298 232 84 48 29 20 353 303 184
224 243 215 293 283 279 263 337 58 331 294 246 278 289 264 148 230 226 164 87 64 321 298 13 288 162 144 239 250 254 329 293 262 251 258 279 250 263 74 54 35 21 19 11 191
243 244 170 307 278 252 262 68 47 109 316 297 304 248 303 304 279 268 53 103 283 340 304 311 292 278 208 279 351 310 287 252 254 301 307 286 68 54 73 53 39 30 38 61 12
272 254 134 304 255 260 314 33 23 288 200 283 292 322 300 8 283 274 308 56 4 310 296 341 315 295 293 20 335 281 288 299 276 278 254 267 69 70 40 65 44 53 52 85 91
293 302 288 243 266 229 104 225 278 250 224 259 265 269 30 292 289 254 256 82 329 290 4 334 302 309 291 178 154 243 285 315 302 282 283 302 102 93 84 70 50 52 56 77 81
292 271 176 232 276 285 284 244 204 220 284 289 312 277 257 241 198 289 253 138 296 314 26 298 274 277 299 321 335 305 298 302 297 280 295 282 12 157 105 61 44 53 66 73 107
303 46 332 287 166 299 288 301 258 216 223 250 242 264 288 287 244 246 256 281 209 156 264 266 279 288 293 299 293 290 283 278 275 281 288 299 309 326 354 34 25 354 72 101 104
338 338 336 280 269 263 222 254 260 255 260 266 234 279 283 275 306 323 328 289 286 258 255 260 271 276 277 278 279 272 270 273 267 269 266 270 276 287 301 129 240 247 218 144 130
348 312 295 276 267 252 270 258 272 341 256 275 312 294 244 320 4 303 294 286 282 281 279 284 289 291 281 296 291 284 261 263 264 266 268 267 267 277 290 302 226 208 227 187 152
Wind_Speed_850mb
22 21 21 20 20 21 23 24 25 26 25 23 23 22 21 23 27 23 10 7 7 5 12 18 14 11 12 19 30 34 7 25 29 27 16 13 18 13 13 26 11 13 29 58 61
24 23 23 22 22 22 22 23 25 25 25 25 23 21 19 22 25 23 25 20 7 8 28 17 12 15 31 20 16 14 25 24 25 16 21 15 19 22 18 24 19 38 52 67 60
23 24 23 23 22 22 23 22 23 24 23 23 22 19 16 18 24 6 10 10 8 10 14 8 8 28 40 9 10 26 22 11 16 19 17 17 24 19 23 19 34 53 65 69 60
24 24 24 22 21 20 21 21 19 19 21 22 20 17 13 9 10 7 8 10 16 20 12 10 14 38 24 21 14 6 11 13 9 7 10 14 23 18 14 24 37 52 71 67 62
26 25 23 20 18 17 17 18 16 15 16 18 18 14 10 19 12 11 9 16 22 12 17 16 26 27 23 19 4 20 16 4 9 7 8 14 16 14 10 28 38 51 62 66 62
28 26 22 17 14 12 12 12 12 11 11 13 15 14 11 30 4 13 2 17 14 14 15 14 19 21 26 16 18 17 6 6 8 8 12 22 22 17 21 30 40 52 57 60 61
27 24 19 14 11 7 6 7 6 7 8 8 11 15 17 10 6 7 13 20 12 15 14 11 14 20 27 24 12 13 13 22 12 8 11 22 14 23 32 31 39 49 52 53 54
25 21 17 12 11 8 5 3 2 3 2 3 10 12 11 8 10 14 17 17 18 17 16 15 21 28 30 26 38 23 15 15 16 15 5 21 29 13 31 41 44 46 51 53 52
22 18 12 11 13 9 4 3 3 3 4 9 9 11 13 5 16 19 21 15 18 16 19 21 22 31 30 32 12 48 8 12 24 17 11 16 14 21 27 44 46 47 48 52 52
20 12 7 11 14 10 10 10 9 10 10 12 10 15 13 16 20 23 23 12 16 17 23 26 30 29 28 28 10 23 17 16 16 10 13 15 17 25 29 42 40 46 48 51 53
20 8 1 8 12 11 4 1 4 6 17 17 28 4 13 12 16 20 24 17 17 19 27 37 24 29 38 22 22 21 25 23 17 9 11 13 12 17 34 32 40 49 51 54 54
18 4 5 4 5 8 10 7 13 6 8 8 12 9 9 10 21 24 26 23 25 29 36 27 26 33 35 18 24 29 32 29 27 12 20 12 14 17 33 27 32 37 46 48 49
12 4 8 2 4 5 5 7 7 7 7 14 16 12 13 17 18 31 32 34 21 28 30 25 35 17 18 27 31 31 31 36 20 21 36 15 24 15 17 24 24 31 37 46 49
6 5 8 5 3 2 2 5 13 9 10 21 18 12 14 13 11 12 28 24 18 23 19 18 20 13 23 26 23 30 27 27 16 25 13 3 5 18 24 22 17 26 35 43 50
3 6 10 11 5 7 5 11 12 6 3 4 14 11 10 20 18 24 18 19 27 17 12 4 6 13 19 12 18 27 26 23 28 26 32 21 10 27 29 13 18 25 32 41 51
2 6 9 7 8 9 12 16 9 16 10 13 13 20 25 21 10 14 23 23 16 15 20 27 2 13 21 16 19 21 19 24 28 26 25 29 20 14 26 6 8 5 11 35 50
6 7 8 9 1 14 14 12 16 2 9 12 19 18 18 17 15 25 24 28 24 25 30 18 19 20 8 33 17 21 29 20 21 22 23 28 13 13 26 15 18 13 11 20 45
4 4 3 5 11 14 11 19 11 5 13 9 6 9 12 10 15 13 12 19 14 14 20 12 22 19 11 11 27 28 26 21 21 19 21 17 10 13 9 26 20 16 14 20 43
3 0 4 8 12 10 20 21 9 8 6 9 17 20 16 14 14 13 11 19 16 21 22 3 8 10 4 12 13 22 22 29 23 27 25 16 21 7 28 23 22 19 16 7 34
5 11 5 8 10 13 22 8 5 9 14 15 24 8 9 16 17 20 8 12 2 6 20 9 22 15 17 12 33 18 24 23 16 21 15 18 13 3 23 16 24 22 19 14 17
9 16 6 7 9 24 19 11 1 4 12 12 8 10 9 4 20 5 7 12 4 3 16 24 25 14 19 13 23 15 23 20 23 18 21 22 16 23 18 21 20 24 21 12 1
14 15 1 6 23 7 9 4 5 4 5 5 14 17 13 7 15 8 12 11 9 15 21 19 20 25 29 8 4 18 24 21 18 24 20 17 9 19 17 19 19 23 22 14 16
18 20 3 10 17 12 9 11 11 11 5 4 3 6 7 16 8 14 4 15 10 13 20 26 16 23 20 26 23 10 3 15 25 23 23 21 4 10 16 18 18 19 20 20 13
13 8 12 14 17 22 6 16 14 9 12 13 16 8 12 14 8 11 14 12 8 15 14 16 29 32 23 33 23 16 28 23 25 18 26 22 4 21 13 9 9 14 15 18 15
5 5 10 8 5 14 11 11 18 12 18 11 11 18 18 15 12 15 7 15 17 17 13 16 28 29 30 23 27 30 31 31 31 30 29 35 34 20 19 14 12 7 7 14 16
17 13 17 31 18 21 11 24 23 14 12 22 15 23 11 21 17 17 14 16 18 14 16 21 26 25 33 30 35 39 38 38 35 36 36 35 35 30 32 12 6 7 3 8 18
19 12 14 12 23 17 17 10 10 6 18 20 15 14 20 11 6 21 28 32 30 27 26 26 25 24 32 28 32 23 36 32 26 27 29 32 30 18 14 14 17 17 10 7 10
Wind_Direction_850mb
318 310 303 295 288 283 278 269 260 258 261 265 276 289 300 303 307 309 327 231 280 201 149 142 179 202 230 258 219 235 225 52 48 59 115 155 116 87 100 124 137 203 143 154 157
322 314 305 295 287 279 274 270 263 256 254 260 265 280 295 302 297 273 253 281 269 176 145 160 181 207 227 238 270 177 51 46 6 75 123 165 128 130 140 131 127 103 122 147 157
327 319 309 299 289 280 275 270 267 261 257 256 262 271 287 303 292 171 237 262 187 133 170 212 273 245 270 130 30 6 19 22 66 41 126 158 124 153 142 140 136 136 144 155 161
333 325 317 307 294 282 275 272 268 263 255 252 255 262 274 289 268 325 320 201 158 148 205 244 266 267 278 51 64 267 46 356 29 96 140 158 139 167 190 131 147 150 157 161 171
337 331 324 313 300 287 274 269 268 265 257 246 245 248 250 246 265 288 318 174 148 146 218 257 289 334 1 356 2 11 36 315 103 161 170 169 162 158 146 139 153 155 162 168 171
341 339 333 323 313 298 281 272 272 266 257 240 231 229 232 251 359 271 196 157 168 192 236 263 314 322 286 318 7 332 307 37 72 166 170 192 174 177 172 160 160 164 170 173 177
345 347 347 338 333 321 293 276 272 263 261 230 207 215 250 262 155 209 176 169 195 210 269 277 306 298 328 312 347 289 271 148 120 134 203 231 189 183 165 173 172 176 181 183 185
350 355 1 6 15 8 351 329 278 240 238 190 180 191 265 217 203 189 192 208 219 224 244 284 297 294 268 295 255 244 229 122 117 153 154 252 159 164 181 179 179 187 186 191 194
351 357 18 32 20 3 6 63 101 114 120 135 137 193 212 231 192 190 183 198 215 231 245 266 289 274 290 258 45 322 5 42 136 167 148 234 121 163 179 181 187 189 193 196 198
350 357 37 33 24 44 80 86 105 113 113 131 195 219 218 206 177 181 186 193 209 238 238 240 248 257 248 248 97 285 347 341 22 106 198 223 260 160 183 181 198 191 198 198 202
341 345 62 36 42 59 85 345 185 182 220 305 167 279 142 148 167 185 194 206 227 233 246 216 260 255 254 359 349 312 296 302 320 49 302 252 264 183 173 200 195 198 199 199 204
332 295 203 41 50 56 46 292 22 345 174 184 187 250 190 202 178 186 188 208 206 239 234 255 249 260 284 344 293 287 285 275 259 18 295 295 273 263 151 192 203 202 193 201 199
328 229 196 214 322 297 282 357 342 317 220 152 169 189 169 198 213 171 194 211 234 242 256 257 288 6 314 282 279 265 264 288 355 314 270 287 237 121 122 163 185 201 202 199 198
333 197 181 173 72 304 285 282 329 291 200 142 167 135 166 228 154 142 200 232 227 271 249 266 288 320 279 269 271 272 288 288 303 281 293 171 80 50 267 140 170 184 207 200 198
352 183 183 196 215 284 277 316 312 275 249 123 107 138 185 253 122 183 195 226 270 239 223 266 289 245 248 296 344 297 327 292 281 275 270 220 211 147 219 106 144 178 193 216 196
55 157 180 231 263 260 298 301 312 238 87 130 139 181 187 210 155 142 193 230 294 271 238 273 241 267 290 316 263 291 276 253 242 254 265 268 248 207 130 96 38 90 210 205 207
111 144 170 177 4 284 294 283 252 294 195 149 154 191 219 159 136 166 188 200 226 226 220 190 220 215 233 271 209 231 248 250 217 216 235 245 171 285 81 55 25 354 296 228 205
120 141 166 259 270 293 287 255 281 340 65 125 218 196 205 170 137 169 194 221 188 283 276 300 176 199 146 330 339 309 327 309 321 297 322 11 226 100 70 59 11 0 312 282 192
167 358 277 285 293 290 273 262 54 11 342 298 192 214 145 192 288 228 262 22 23 333 323 315 187 120 258 329 313 331 274 349 311 296 282 284 298 232 84 48 29 20 353 303 184
224 243 215 293 283 279 263 337 58 331 294 246 278 289 264 148 230 226 164 87 64 321 298 13 288 162 144 239 250 254 329 293 262 251 258 279 250 263 74 54 35 21 19 11 191
243 244 170 307 278 252 262 68 47 109 316 297 304 248 303 304 279 268 53 103 283 340 304 311 292 278 208 279 351 310 287 252 254 301 307 286 68 54 73 53 39 30 38 61 12
272 254 134 304 255 260 314 33 23 288 200 283 292 322 300 8 283 274 308 56 4 310 296 341 315 295 293 20 335 281 288 299 276 278 254 267 69 70 40 65 44 53 52 85 91
293 302 288 243 266 229 104 225 278 250 224 259 265 269 30 292 289 254 256 82 329 290 4 334 302 309 291 178 154 243 285 315 302 282 283 302 102 93 84 70 50 52 56 77 81
292 271 176 232 276 285 284 244 204 220 284 289 312 277 257 241 198 289 253 138 296 314 26 298 274 277 299 321 335 305 298 302 297 280 295 282 12 157 105 61 44 53 66 73 107
303 46 332 287 166 299 288 301 258 216 223 250 242 264 288 287 244 246 256 281 209 156 264 266 279 288 293 299 293 290 283 278 275 281 288 299 309 326 354 34 25 354 72 101 104
338 338 336 280 269 263 222 254 260 255 260 266 234 279 283 275 306 323 328 289 286 258 255 260 271 276 277 278 279 272 270 273 267 269 266 270 276 287 301 129 240 247 218 144 130
348 312 295 276 267 252 270 258 272 341 256 275 312 294 244 320 4 303 294 286 282 281 279 284 289 291 281 296 291 284 261 263 264 266 268 267 267 277 290 302 226 208 227 187 152